Regional Weather Roundup
Issued by NWS

Home | Current Version | Previous Version | Text Only | Print | Product List | Glossary Off
Versions: 1 2 3 4 5 6 7 8 9 10 11 12 13 14 15 16 17 18 19 20 21 22 23 24 25 26 27 28

000
ASUS45 KSLC 260010
RWRUT

UTAH REGIONAL WEATHER ROUNDUP
NATIONAL WEATHER SERVICE SALT LAKE CITY UT
600 PM MDT FRI MAY 25 2018

UTZ001>011-023>025-260100-

NORTHERN UTAH

CITY           SKY/WX    TMP DP  RH WIND       PRES   REMARKS
BRIGHAM CITY   SUNNY     85  26  11 S6        29.84S
HILL AFB       NOT AVBL
LOGAN          SUNNY     82  46  28 W6        29.84F
OGDEN          SUNNY     85  33  15 VRB7G20   29.83F
SALT LAKE CITY SUNNY     89  26  10 S10       29.80F
TOOELE VALLEY  SUNNY     88  32  13 S14       29.82F
WENDOVER       SUNNY     87  29  12 S15       29.79F
HEBER CITY       N/A     82  32  16 W8        29.89F
WEST JORDAN    SUNNY     85  40  20 CALM      29.85S

$$

UTZ011>015-024>027-260100-

CENTRAL/NORTHEAST UTAH

CITY           SKY/WX    TMP DP  RH WIND       PRES   REMARKS
PROVO AIRPORT  SUNNY     86  29  12 CALM      29.85F
MOAB/CANYONLAN SUNNY     89   7   4 SW18G24   29.89F
DELTA          SUNNY     84  23  10 SW17      29.87F
PRICE          SUNNY     84  11   6 S18G25    29.97F
ROOSEVELT      SUNNY     88  19   8 SW9       29.94S
VERNAL         SUNNY     88  18   7 S14       29.92F

$$

UTZ013>016-019>022-027-260100-

SOUTHERN UTAH

CITY           SKY/WX    TMP DP  RH WIND       PRES   REMARKS
BRYCE CANYON   SUNNY     73  14  10 S21G30    30.13F
CEDAR CITY     SUNNY     80  21  11 SW23G30   29.94F
MILFORD        SUNNY     84  19   9 S29G39    29.88F
ST GEORGE      CLEAR     90  25   9 W18G26    29.82S
HANKSVILLE     SUNNY     90  16   6 S13G22    29.92F
BLANDING         N/A     82  16   8 S8G16     30.12F

$$

REGIONAL REPORTS     COLORADO/ARIZONA

CITY           SKY/WX    TMP DP  RH WIND       PRES   REMARKS
CRAIG, CO      SUNNY     83  26  12 SW13      30.02F
GRAND JUNCTION SUNNY     90  18   7 W8        29.92F
RIFLE, CO      SUNNY     89   2   3 W18G28    29.96F
MONTROSE, CO   SUNNY     86   0   4 W16G25    30.00S
CORTEZ, CO     SUNNY     84  17   8 SW10      30.07F
COLORADO CITY    N/A     86  18   8 SW20G29   29.98F
PAGE, AZ       SUNNY     91  12   5 VRB6G18   29.89F
GRAND CANYON   SUNNY     77  11   8 SW24G30   30.13F
KINGMAN, AZ    SUNNY     85  20   9 SW29      29.93F
FLAGSTAFF, AZ  SUNNY     72   8   8 SW14G30   30.18F

$$

REGIONAL REPORTS    NEVADA/IDAHO/WYOMING

CITY           SKY/WX    TMP DP  RH WIND       PRES   REMARKS
LAS VEGAS, NV  SUNNY     87  27  11 SW14G26   29.81S
ELY, NY        MOSUNNY   73  23  15 S21G35    29.95F
ELKO, NV       MOSUNNY   78  31  17 SW17G23   29.83F
POCATELLO, ID  MOSUNNY   84  39  20 S9        29.83F
BURLEY, ID     SUNNY     87  29  12 S9        29.78F
FORT BRIDGER,    N/A     81  23  12 SE13      30.06F
EVANSTON, WY   SUNNY     76  36  23 SW10      30.03F
ROCK SPRINGS,  SUNNY     78  20  11 SW14      30.04F

$$




USA.gov is the U.S. government's official web portal to all federal, state and local government web resources and services.